LFRTLFRB

Guest
Details From LFRT - Saint Brieuc Armor
To LFRB - Brest Bretagne
Flight Number -
Tags decoded
Created
Modified
Stats Distance 68 nm / 127 km
Max Altitude 0 ft / 0 m
Waypoints 4
Social Downloads 3
Likes 0
Share VATSIM

Download

Looking for another format? Having issues loading an existing format? Contact us
Advertisement - Login to hide

Notes

Requested: LFRT ANLEV RB410 LFRB

Route

LFRT ANLEV RB410 LFRB

ID Type Via Altitude Latitude Longitude Leg Dist Tot Dist Heading (true) Name
O LFRT APT - 0 ft / 0 m 48.53826˚ -2.85461˚ - 0 nm - Saint Brieuc Armor
ANLEV FIX - 0 ft / 0 m 48.69361˚ -3.05000˚ 12 nm 12 nm 320° / 320° -
RB410 FIX - 0 ft / 0 m 48.47769˚ -4.28550˚ 50 nm 62 nm 256° / 255° -
O LFRB APT - 0 ft / 0 m 48.44938˚ -4.41823˚ 5 nm 68 nm 252° / 252° Brest Bretagne

Altitude Profile

Advertisement - Login to hide

LFRT

Details ICAO LFRT (SBK)
Name Saint Brieuc Armor
Region France
Timezone Europe/Paris (UTC+1.0)
Stats Elevation 452 ft / 138 m (AMSL)
Location 48.538265° -2.854612°
Runways 1
Magnetic Variation 1.053° W

METAR

LFRT 131100Z AUTO 25013KT 220V280 9999 BKN018/// BKN023/// OVC068/// 10/07 Q1005

Decode

TAF

Not found

Departure Runways

ID Width Length Bearing (true) Bearing (mag) Surface Threshold Offset Overrun Length
06 148 ft / 45 m 7,214 ft / 2,199 m 58.77° 59.82° Asphalt 0 ft / 0 m 0 ft / 0 m
24 148 ft / 45 m 7,214 ft / 2,199 m 238.79° 239.84° Asphalt 0 ft / 0 m 0 ft / 0 m

LFRB

Details ICAO LFRB (BES)
Name Brest Bretagne
Region France
Timezone Europe/Paris (UTC+1.0)
Stats Elevation 325 ft / 99 m (AMSL)
Location 48.449376° -4.418232°
Runways 2
Magnetic Variation 1.576° W

METAR

LFRB 131100Z AUTO 23020KT 3900 -RA BR OVC005/// 10/09 Q1005 BECMG 21015G25KT RA

Decode

TAF

TAF LFRB 130500Z 1306/1412 28008KT 9999 BKN020 BECMG 1308/1311 21015G25KT 3000 RA SCT003 OVC005 BECMG 1314/1316 27020G30KT 9999 NSW BKN025 TEMPO 1316/1412 27025G40KT 3000 SHRA BKN015TCU PROB30 TEMPO 1406/1412 TSRAGS BKN013CB

Decode

Destination Runways

ID Width Length Bearing (true) Bearing (mag) Surface Threshold Offset Overrun Length
07L 62 ft / 19 m 2,518 ft / 768 m 71.21° 72.79° Asphalt 131 ft / 40 m 0 ft / 0 m
07R 148 ft / 45 m 10,153 ft / 3,095 m 71.16° 72.74° Asphalt 0 ft / 0 m 0 ft / 0 m
25L 148 ft / 45 m 10,153 ft / 3,095 m 251.19° 252.77° Asphalt 984 ft / 300 m 0 ft / 0 m
25R 62 ft / 19 m 2,518 ft / 768 m 251.22° 252.80° Asphalt 112 ft / 34 m 0 ft / 0 m

Approach Navaids

Runway Type Ident Frequency Range Bearing (true) Bearing (mag) Slope Elevation
25L Localiser BG 109.90 MHz 27 nm / 50 km 251.20° 252.78° - 325 ft / 99 m (AMSL)
25L Glidescope BG 109.90 MHz 27 nm / 50 km 251.20° 252.78° 3.00° 325 ft / 99 m (AMSL)
25L DME BG 109.90 MHz 27 nm / 50 km - - - 325 ft / 99 m (AMSL)

Popular Alternatives